Change the Weather History Date:

Friday, March 23, 2012

  Actual Average Record
Temperature  
Mean Temperature 58 °F -  
Max Temperature 71 °F 42 °F 71 °F (2012)
Min Temperature 46 °F 25 °F 12 °F (2015)
Degree Days  
Heating Degree Days 7    
Growing Degree Days 8 (Base 50)    
Moisture  
Dew Point 39 °F    
Average Humidity 56    
Maximum Humidity 90    
Minimum Humidity 20    
Precipitation  
Precipitation 0.00 in - - ()
Sea Level Pressure  
Sea Level Pressure 30.10 in    
Wind  
Wind Speed 2 mph (West)    
Max Wind Speed 8 mph    
Max Gust Speed -    
Visibility 10 miles    
Events      
Averages and records for this station are not official NWS values.
T = Trace of Precipitation, MM = Missing Value Source: NWS Daily Summary

Daily Weather History Graph

Daily Weather History Graph

Search for Another Location

Airport or City:

Trip Planner

Search our weather history database for the weather conditions in past years. The results will help you decide how hot, cold, wet, or windy it might be!

Date:

Astronomy

Mar. 23, 2012 Rise Set
Actual Time 6:49 AM EDT 7:08 PM EDT
Civil Twilight 6:21 AM EDT 7:37 PM EDT
Nautical Twilight 5:48 AM EDT 8:10 PM EDT
Astronomical Twilight 5:14 AM EDT 8:44 PM EDT
Moon 6:54 AM EDT (3/23) 8:31 PM EDT (3/23)
Length of Visible Light 13h 15m
Length of Day
12h 19m
New Moon, 1% of the Moon is Illuminated
Mar 23
New Moon
Mar 30
First Quarter
Apr 6
Full
Apr 13
Last Quarter
Apr 21
New

Hourly Weather History & Observations

Time (EDT) Temp. Dew Point Humidity Pressure Visibility Wind Dir Wind Speed Gust Speed Precip Events Conditions
12:52 AM 51.1 °F 46.9 °F 86% 30.07 in 10.0 mi Calm Calm - N/A   Clear
1:52 AM 48.9 °F 46.0 °F 90% 30.09 in 10.0 mi Calm Calm - N/A   Clear
2:52 AM 48.0 °F 45.0 °F 89% 30.09 in 10.0 mi Calm Calm - N/A   Clear
3:52 AM 48.0 °F 45.0 °F 89% 30.09 in 10.0 mi Calm Calm - N/A   Scattered Clouds
4:52 AM 48.0 °F 45.0 °F 89% 30.10 in 10.0 mi Calm Calm - N/A   Clear
5:52 AM 46.9 °F 44.1 °F 90% 30.12 in 10.0 mi SW 4.6 mph - N/A   Clear
6:52 AM 46.9 °F 44.1 °F 90% 30.14 in 10.0 mi Calm Calm - N/A   Clear
7:52 AM 48.9 °F 46.0 °F 90% 30.14 in 10.0 mi Calm Calm - N/A   Mostly Cloudy
8:52 AM 55.9 °F 48.0 °F 75% 30.16 in 10.0 mi West 3.5 mph - N/A   Overcast
9:52 AM 60.1 °F 46.9 °F 62% 30.17 in 10.0 mi WSW 5.8 mph - N/A   Mostly Cloudy
10:52 AM 64.9 °F 42.1 °F 43% 30.16 in 10.0 mi Variable 4.6 mph - N/A   Clear
11:52 AM 68.0 °F 37.0 °F 32% 30.14 in 10.0 mi WNW 6.9 mph - N/A   Clear
12:52 PM 69.1 °F 37.0 °F 31% 30.13 in 10.0 mi Variable 6.9 mph - N/A   Clear
1:52 PM 70.0 °F 34.0 °F 27% 30.10 in 10.0 mi NW 8.1 mph - N/A   Clear
2:52 PM 70.0 °F 30.9 °F 24% 30.08 in 10.0 mi NNW 8.1 mph - N/A   Clear
3:52 PM 70.0 °F 27.0 °F 20% 30.07 in 10.0 mi WNW 6.9 mph - N/A   Clear
4:52 PM 68.0 °F 30.0 °F 24% 30.06 in 10.0 mi Variable 4.6 mph - N/A   Clear
5:52 PM 66.0 °F 30.9 °F 27% 30.06 in 10.0 mi West 4.6 mph - N/A   Clear
6:52 PM 64.0 °F 32.0 °F 30% 30.06 in 10.0 mi West 5.8 mph - N/A   Mostly Cloudy
7:52 PM 55.9 °F 36.0 °F 47% 30.06 in 10.0 mi Calm Calm - N/A   Clear
8:52 PM 55.0 °F 36.0 °F 49% 30.07 in 10.0 mi SW 3.5 mph - N/A   Clear
9:52 PM 55.9 °F 34.0 °F 44% 30.08 in 10.0 mi Calm Calm - N/A   Clear
10:52 PM 55.0 °F 32.0 °F 42% 30.08 in 10.0 mi Calm Calm - N/A   Clear
11:52 PM 53.1 °F 35.1 °F 50% 30.08 in 10.0 mi Calm Calm - N/A   Clear